{"data":{"norad_id":65577,"epoch":"2026-09-20T01:09:12.960288Z","epoch_age_seconds":53386,"freshness":"FRESH","line1":"1 65577U 25203N   26263.04806667  .00000053  00000+0  36986-4 0  9991","line2":"2 65577  81.2979 282.6455 0006094 297.4517  62.6020 13.84784567 51841","mean_motion":13.84784567,"eccentricity":0.0006094,"inclination_deg":81.2979,"raan_deg":282.6455,"arg_perigee_deg":297.4517,"mean_anomaly_deg":62.602,"bstar":3.6986e-5,"rev_number":5184,"period_min":103.98729407561,"perigee_km":942.50144719371,"apogee_km":951.42928195565,"semimajor_km":7325.1023645747,"source":"CELESTRAK","updated_at":"2026-09-20T09:00:47.717132Z"}}